Time,TemperatureF,DewpointF,PressureIn,WindDirection,WindDirectionDegrees,WindSpeedMPH,WindSpeedGustMPH,Humidity,HourlyPrecipIn,Conditions,Clouds,dailyrainin,SoftwareType,DateUTC
2013-09-24 00:12:00,62.6,60.0,29.04,SSW,213,0.0,1.0,90,0.00,,,0.00,weatherlink.com 1.10,2013-09-24 04:12:00,
2013-09-24 00:27:00,62.5,60.0,29.04,SW,225,1.0,3.0,91,0.00,,,0.00,weatherlink.com 1.10,2013-09-24 04:27:00,
2013-09-24 00:42:00,62.4,60.0,29.04,SW,217,0.0,4.0,91,0.00,,,0.00,weatherlink.com 1.10,2013-09-24 04:42:00,
2013-09-24 00:57:00,62.2,60.0,29.04,SW,217,0.0,1.0,91,0.00,,,0.00,weatherlink.com 1.10,2013-09-24 04:57:00,
2013-09-24 01:12:00,61.9,59.0,29.04,SW,217,1.0,2.0,91,0.00,,,0.00,weatherlink.com 1.10,2013-09-24 05:12:00,
2013-09-24 01:27:00,61.5,59.0,29.04,SW,215,0.0,0.0,92,0.00,,,0.00,weatherlink.com 1.10,2013-09-24 05:27:00,
2013-09-24 01:42:00,61.2,59.0,29.04,SW,217,0.0,0.0,92,0.00,,,0.00,weatherlink.com 1.10,2013-09-24 05:42:00,
2013-09-24 01:57:00,61.0,59.0,29.03,SW,217,0.0,1.0,93,0.00,,,0.00,weatherlink.com 1.10,2013-09-24 05:57:00,
2013-09-24 02:12:00,60.9,59.0,29.04,SW,216,1.0,2.0,93,0.00,,,0.00,weatherlink.com 1.10,2013-09-24 06:12:00,
2013-09-24 02:27:00,60.9,59.0,29.03,SW,217,0.0,1.0,94,0.00,,,0.00,weatherlink.com 1.10,2013-09-24 06:27:00,
2013-09-24 02:42:00,60.7,59.0,29.04,SW,216,0.0,1.0,94,0.00,,,0.00,weatherlink.com 1.10,2013-09-24 06:42:00,
2013-09-24 02:57:00,60.5,59.0,29.03,SW,216,1.0,2.0,94,0.00,,,0.00,weatherlink.com 1.10,2013-09-24 06:57:00,
2013-09-24 03:12:00,60.3,59.0,29.04,SW,217,0.0,0.0,94,0.00,,,0.00,weatherlink.com 1.10,2013-09-24 07:12:00,
2013-09-24 03:27:00,60.1,58.0,29.04,SW,217,0.0,0.0,94,0.00,,,0.00,weatherlink.com 1.10,2013-09-24 07:27:00,
2013-09-24 03:42:00,59.8,58.0,29.03,SW,216,0.0,1.0,94,0.00,,,0.00,weatherlink.com 1.10,2013-09-24 07:42:00,
2013-09-24 03:57:00,59.6,58.0,29.03,SW,217,0.0,0.0,94,0.00,,,0.00,weatherlink.com 1.10,2013-09-24 07:57:00,
2013-09-24 04:12:00,59.3,58.0,29.03,SW,216,1.0,2.0,94,0.00,,,0.00,weatherlink.com 1.10,2013-09-24 08:12:00,
2013-09-24 04:27:00,59.0,58.0,29.03,SW,217,0.0,1.0,95,0.00,,,0.00,weatherlink.com 1.10,2013-09-24 08:27:00,
2013-09-24 04:42:00,58.9,58.0,29.03,SW,219,0.0,2.0,95,0.00,,,0.00,weatherlink.com 1.10,2013-09-24 08:42:00,
2013-09-24 04:57:00,58.9,58.0,29.04,SW,217,0.0,1.0,95,0.00,,,0.00,weatherlink.com 1.10,2013-09-24 08:57:00,
2013-09-24 05:12:00,59.0,58.0,29.04,SW,219,0.0,0.0,95,0.00,,,0.00,weatherlink.com 1.10,2013-09-24 09:12:00,
2013-09-24 05:27:00,59.3,58.0,29.04,WSW,248,1.0,2.0,96,0.00,,,0.00,weatherlink.com 1.10,2013-09-24 09:27:00,
2013-09-24 05:42:00,60.0,59.0,29.04,West,273,1.0,2.0,96,0.00,,,0.00,weatherlink.com 1.10,2013-09-24 09:42:00,
2013-09-24 05:57:00,60.5,59.0,29.05,West,273,0.0,0.0,96,0.00,,,0.00,weatherlink.com 1.10,2013-09-24 09:57:00,
2013-09-24 06:12:00,60.6,59.0,29.05,North,360,0.0,2.0,95,0.00,,,0.00,weatherlink.com 1.10,2013-09-24 10:12:00,
2013-09-24 06:27:00,60.7,60.0,29.05,WSW,257,0.0,3.0,96,0.00,,,0.00,weatherlink.com 1.10,2013-09-24 10:27:00,
2013-09-24 06:42:00,61.1,60.0,29.05,WSW,257,0.0,3.0,96,0.00,,,0.00,weatherlink.com 1.10,2013-09-24 10:42:00,
2013-09-24 06:57:00,61.4,60.0,29.05,WSW,257,0.0,2.0,96,0.00,,,0.00,weatherlink.com 1.10,2013-09-24 10:57:00,
2013-09-24 07:12:00,61.6,61.0,29.05,WSW,258,0.0,0.0,96,0.00,,,0.00,weatherlink.com 1.10,2013-09-24 11:12:00,
2013-09-24 07:27:00,61.8,61.0,29.06,WSW,256,0.0,0.0,96,0.00,,,0.00,weatherlink.com 1.10,2013-09-24 11:27:00,
2013-09-24 07:42:00,62.0,61.0,29.06,WSW,257,0.0,0.0,96,0.00,,,0.00,weatherlink.com 1.10,2013-09-24 11:42:00,
2013-09-24 07:57:00,62.2,61.0,29.06,WSW,258,0.0,1.0,96,0.00,,,0.00,weatherlink.com 1.10,2013-09-24 11:57:00,
2013-09-24 08:12:00,62.5,61.0,29.06,WSW,257,0.0,0.0,96,0.00,,,0.00,weatherlink.com 1.10,2013-09-24 12:12:00,
2013-09-24 08:27:00,62.6,61.0,29.06,WSW,256,0.0,0.0,95,0.00,,,0.00,weatherlink.com 1.10,2013-09-24 12:27:00,
2013-09-24 08:42:00,62.9,61.0,29.06,West,262,0.0,3.0,94,0.00,,,0.00,weatherlink.com 1.10,2013-09-24 12:42:00,
2013-09-24 08:57:00,63.2,62.0,29.06,West,281,0.0,1.0,94,0.00,,,0.00,weatherlink.com 1.10,2013-09-24 12:57:00,
2013-09-24 09:12:00,63.6,62.0,29.05,ENE,70,1.0,3.0,93,0.00,,,0.00,weatherlink.com 1.10,2013-09-24 13:12:00,
2013-09-24 09:27:00,64.1,62.0,29.05,ENE,73,0.0,3.0,92,0.00,,,0.00,weatherlink.com 1.10,2013-09-24 13:27:00,
2013-09-24 09:42:00,64.5,62.0,29.05,ENE,70,0.0,3.0,92,0.00,,,0.00,weatherlink.com 1.10,2013-09-24 13:42:00,
2013-09-24 09:57:00,64.7,62.0,29.06,ENE,63,3.0,4.0,90,0.00,,,0.00,weatherlink.com 1.10,2013-09-24 13:57:00,
2013-09-24 10:12:00,64.9,62.0,29.05,ENE,71,1.0,4.0,90,0.00,,,0.00,weatherlink.com 1.10,2013-09-24 14:12:00,
2013-09-24 10:28:00,65.2,62.0,29.05,ENE,74,2.0,3.0,89,0.00,,,0.00,weatherlink.com 1.10,2013-09-24 14:28:00,
2013-09-24 10:43:00,65.7,62.0,29.06,ENE,73,0.0,2.0,88,0.00,,,0.00,weatherlink.com 1.10,2013-09-24 14:43:00,
2013-09-24 10:58:00,66.3,63.0,29.05,ENE,65,2.0,2.0,88,0.00,,,0.00,weatherlink.com 1.10,2013-09-24 14:58:00,
2013-09-24 11:13:00,66.8,63.0,29.05,East,82,0.0,3.0,86,0.00,,,0.00,weatherlink.com 1.10,2013-09-24 15:13:00,
2013-09-24 11:28:00,67.7,63.0,29.05,East,86,2.0,3.0,85,0.00,,,0.00,weatherlink.com 1.10,2013-09-24 15:28:00,
2013-09-24 11:43:00,68.1,63.0,29.05,ENE,74,0.0,3.0,84,0.00,,,0.00,weatherlink.com 1.10,2013-09-24 15:43:00,
2013-09-24 11:58:00,68.1,63.0,29.05,ENE,74,1.0,3.0,83,0.00,,,0.00,weatherlink.com 1.10,2013-09-24 15:58:00,
2013-09-24 12:28:00,68.0,63.0,29.05,ENE,78,0.0,2.0,84,0.00,,,0.00,weatherlink.com 1.10,2013-09-24 16:28:00,
2013-09-24 12:43:00,68.3,63.0,29.04,ENE,77,0.0,2.0,83,0.00,,,0.00,weatherlink.com 1.10,2013-09-24 16:43:00,
2013-09-24 12:58:00,69.1,64.0,29.04,East,79,1.0,4.0,83,0.00,,,0.00,weatherlink.com 1.10,2013-09-24 16:58:00,
2013-09-24 13:13:00,69.1,63.0,29.03,East,88,0.0,2.0,81,0.00,,,0.00,weatherlink.com 1.10,2013-09-24 17:13:00,
2013-09-24 13:28:00,69.6,64.0,29.02,East,95,1.0,3.0,81,0.00,,,0.00,weatherlink.com 1.10,2013-09-24 17:28:00,
2013-09-24 13:43:00,70.3,64.0,29.02,ESE,114,1.0,4.0,81,0.00,,,0.00,weatherlink.com 1.10,2013-09-24 17:43:00,
2013-09-24 13:58:00,70.7,64.0,29.01,ESE,106,0.0,2.0,79,0.00,,,0.00,weatherlink.com 1.10,2013-09-24 17:58:00,
2013-09-24 14:13:00,70.6,65.0,29.01,SSW,204,0.0,5.0,81,0.00,,,0.00,weatherlink.com 1.10,2013-09-24 18:13:00,
2013-09-24 14:28:00,70.1,64.0,29.00,SSW,203,2.0,3.0,82,0.00,,,0.00,weatherlink.com 1.10,2013-09-24 18:28:00,
2013-09-24 14:43:00,69.8,64.0,29.00,SSW,199,1.0,2.0,83,0.00,,,0.00,weatherlink.com 1.10,2013-09-24 18:43:00,
2013-09-24 14:58:00,69.7,65.0,29.00,SSW,196,2.0,4.0,84,0.00,,,0.00,weatherlink.com 1.10,2013-09-24 18:58:00,
2013-09-24 15:13:00,69.6,65.0,29.00,ESE,109,0.0,2.0,85,0.00,,,0.00,weatherlink.com 1.10,2013-09-24 19:13:00,
2013-09-24 15:43:00,68.8,65.0,28.99,South,188,1.0,4.0,87,0.00,,,0.00,weatherlink.com 1.10,2013-09-24 19:43:00,
2013-09-24 15:58:00,68.6,65.0,28.98,SSW,205,0.0,4.0,87,0.00,,,0.00,weatherlink.com 1.10,2013-09-24 19:58:00,
2013-09-24 16:13:00,69.2,66.0,28.97,SE,131,0.0,2.0,88,0.00,,,0.00,weatherlink.com 1.10,2013-09-24 20:13:00,
2013-09-24 16:28:00,69.3,65.0,28.97,SSE,154,0.0,3.0,87,0.00,,,0.00,weatherlink.com 1.10,2013-09-24 20:28:00,
2013-09-24 16:43:00,69.3,65.0,28.97,SE,136,1.0,3.0,86,0.00,,,0.00,weatherlink.com 1.10,2013-09-24 20:43:00,
2013-09-24 16:58:00,69.4,65.0,28.96,SSE,149,2.0,3.0,87,0.00,,,0.00,weatherlink.com 1.10,2013-09-24 20:58:00,
2013-09-24 17:13:00,69.0,64.0,28.95,South,187,4.0,6.0,85,0.00,,,0.00,weatherlink.com 1.10,2013-09-24 21:13:00,
2013-09-24 17:28:00,68.9,65.0,28.95,SE,138,0.0,3.0,87,0.00,,,0.00,weatherlink.com 1.10,2013-09-24 21:28:00,
2013-09-24 17:43:00,68.8,65.0,28.96,SSW,198,4.0,4.0,86,0.00,,,0.00,weatherlink.com 1.10,2013-09-24 21:43:00,
2013-09-24 17:58:00,68.8,65.0,28.95,South,181,0.0,2.0,87,0.00,,,0.00,weatherlink.com 1.10,2013-09-24 21:58:00,
2013-09-24 18:13:00,68.8,65.0,28.95,South,182,0.0,2.0,87,0.00,,,0.00,weatherlink.com 1.10,2013-09-24 22:13:00,
2013-09-24 18:28:00,68.8,65.0,28.95,South,188,0.0,4.0,87,0.00,,,0.00,weatherlink.com 1.10,2013-09-24 22:28:00,
2013-09-24 18:43:00,68.5,64.0,28.95,South,185,0.0,5.0,86,0.00,,,0.00,weatherlink.com 1.10,2013-09-24 22:43:00,
2013-09-24 18:58:00,68.3,65.0,28.95,South,184,0.0,1.0,88,0.00,,,0.00,weatherlink.com 1.10,2013-09-24 22:58:00,
2013-09-24 19:13:00,68.1,65.0,28.94,South,186,0.0,1.0,88,0.00,,,0.00,weatherlink.com 1.10,2013-09-24 23:13:00,
2013-09-24 19:28:00,67.9,64.0,28.94,SW,223,1.0,3.0,88,0.00,,,0.00,weatherlink.com 1.10,2013-09-24 23:28:00,
2013-09-24 19:43:00,67.8,65.0,28.93,SW,222,0.0,1.0,89,0.00,,,0.00,weatherlink.com 1.10,2013-09-24 23:43:00,
2013-09-24 19:58:00,67.6,64.0,28.94,SSW,198,0.0,6.0,89,0.00,,,0.00,weatherlink.com 1.10,2013-09-24 23:58:00,
2013-09-24 20:13:00,67.7,64.0,28.94,SSW,199,0.0,1.0,89,0.00,,,0.00,weatherlink.com 1.10,2013-09-25 00:13:00,
2013-09-24 20:28:00,67.5,64.0,28.93,SSW,199,0.0,1.0,89,0.00,,,0.00,weatherlink.com 1.10,2013-09-25 00:28:00,
2013-09-24 20:43:00,67.4,64.0,28.94,SSE,153,0.0,2.0,89,0.00,,,0.00,weatherlink.com 1.10,2013-09-25 00:43:00,
2013-09-24 20:58:00,67.3,64.0,28.95,SSW,202,1.0,3.0,88,0.00,,,0.00,weatherlink.com 1.10,2013-09-25 00:58:00,
2013-09-24 21:13:00,67.3,64.0,28.95,SSW,202,0.0,3.0,88,0.00,,,0.00,weatherlink.com 1.10,2013-09-25 01:13:00,
2013-09-24 21:28:00,67.3,64.0,28.95,SSW,200,0.0,1.0,89,0.00,,,0.00,weatherlink.com 1.10,2013-09-25 01:28:00,
2013-09-24 21:43:00,67.0,64.0,28.95,SSW,202,0.0,2.0,89,0.00,,,0.00,weatherlink.com 1.10,2013-09-25 01:43:00,
2013-09-24 21:58:00,67.1,64.0,28.94,SSW,202,0.0,1.0,89,0.00,,,0.00,weatherlink.com 1.10,2013-09-25 01:58:00,
2013-09-24 22:13:00,67.0,64.0,28.94,SSW,202,0.0,1.0,89,0.00,,,0.00,weatherlink.com 1.10,2013-09-25 02:13:00,
2013-09-24 22:28:00,67.1,64.0,28.94,SSW,201,0.0,3.0,89,0.00,,,0.00,weatherlink.com 1.10,2013-09-25 02:28:00,
2013-09-24 22:43:00,67.1,64.0,28.94,SSW,202,2.0,2.0,89,0.00,,,0.00,weatherlink.com 1.10,2013-09-25 02:43:00,
2013-09-24 22:59:00,67.0,64.0,28.94,SSW,202,0.0,3.0,89,0.00,,,0.00,weatherlink.com 1.10,2013-09-25 02:59:00,
2013-09-24 23:14:00,67.0,64.0,28.94,SSW,202,0.0,0.0,90,0.00,,,0.00,weatherlink.com 1.10,2013-09-25 03:14:00,
2013-09-24 23:29:00,66.8,64.0,28.93,SSW,202,0.0,0.0,90,0.00,,,0.00,weatherlink.com 1.10,2013-09-25 03:29:00,
2013-09-24 23:44:00,66.6,64.0,28.93,SSW,202,0.0,2.0,91,0.00,,,0.00,weatherlink.com 1.10,2013-09-25 03:44:00,
2013-09-24 23:59:00,66.6,64.0,28.93,SSW,202,0.0,0.0,91,0.00,,,0.00,weatherlink.com 1.10,2013-09-25 03:59:00,